Home   Weather   San Marino   Past weeks
Flag for San Marino

Past Weather in San Marino, San Marino — Yesterday and Last 2 Weeks

Now
63 °F

Passing clouds.


Feels Like: 63 °F
Forecast: 55 / 45 °F
Wind: 5 mph from South

Location: Rimini Airport

Current Time: Oct 16, 2019 at 4:19:07 am

Latest Report: Oct 16, 2019 at 3:20 am


Visibility: N/A

Pressure: 29.92 "Hg (27.66 "Hg at 666m altitude)

Humidity: 73%

Dew Point: 54 °F

Location of San MarinoLocation

Past Weather in San Marino — Graph

°F

San Marino Temperature Yesterday

Maximum temperature yesterday: 79 °F (at 4:20 pm)
Minimum temperature yesterday: 55 °F (at 12:20 am)
Average temperature yesterday: 66 °F

High & Low Weather Summary for the Past Weeks

 TemperatureHumidityPressure
High79 °F (Oct 2, 12:20 pm)100% (Oct 12, 2:50 am)30.24 "Hg (Oct 12, 2:50 am)
Low46 °F (Oct 9, 6:50 am)41% (Oct 9, 3:20 pm)29.62 "Hg (Oct 2, 9:20 am)
Average62 °F78%29.98 "Hg
* Reported Oct 1 3:20 am — Oct 16 3:20 am, San Marino. Weather by CustomWeather, © 2019

Note: Actual official high and low records may vary slightly from our data, if they occured in-between our weather recording intervals... More about our weather records

Advertising

San Marino Weather History for the Previous 24 Hours

Scroll right to see more
 ConditionsComfort  
Time TempWeatherWind HumidityBarometerVisibility
3:20 am
Wed, Oct 16
63 °FPassing clouds.5 mph73%29.92 "HgN/A
2:50 am63 °FMild.3 mph77%29.92 "HgN/A
2:20 am63 °FPassing clouds.3 mph77%29.92 "HgN/A
1:50 am64 °FPassing clouds.3 mph78%29.92 "HgN/A
1:20 am66 °FPassing clouds.3 mph73%29.92 "HgN/A
12:50 am66 °FPassing clouds.6 mph78%29.89 "HgN/A
12:20 am68 °FPassing clouds.5 mph73%29.89 "HgN/A
11:50 pm
Tue, Oct 15
68 °FPassing clouds.7 mph73%29.89 "HgN/A
11:20 pm70 °FPassing clouds.9 mph69%29.89 "HgN/A
10:50 pm70 °FPassing clouds.9 mph69%29.89 "HgN/A
10:20 pm70 °FLight rain. Passing clouds.10 mph73%29.89 "HgN/A
9:50 pm68 °FLight rain. Passing clouds.3 mph73%29.89 "HgN/A
9:20 pm70 °FLight rain. Passing clouds.5 mph64%29.89 "HgN/A
8:50 pm70 °FPassing clouds.8 mph64%29.89 "HgN/A
8:20 pm70 °FPassing clouds.8 mph64%29.89 "HgN/A
7:50 pm70 °FPassing clouds.8 mph64%29.89 "HgN/A
7:20 pm70 °FPassing clouds.8 mph64%29.86 "HgN/A
6:50 pm72 °FPassing clouds.10 mph61%29.86 "HgN/A
6:20 pm72 °FPassing clouds.10 mph61%29.86 "HgN/A
5:50 pm73 °FPassing clouds.8 mph57%29.86 "HgN/A
5:20 pm75 °FPassing clouds.10 mph54%29.86 "HgN/A
4:50 pm77 °FPassing clouds.10 mph51%29.89 "HgN/A
4:20 pm79 °FPassing clouds.8 mph48%29.89 "HgN/A
3:50 pm77 °FScattered clouds.8 mph61%29.89 "HgN/A
3:20 pm73 °FScattered clouds.8 mph69%29.89 "HgN/A
2:50 pm73 °FScattered clouds.9 mph69%29.92 "HgN/A
2:20 pm73 °FScattered clouds.7 mph65%29.92 "HgN/A
1:50 pm75 °FScattered clouds.7 mph50%29.95 "HgN/A
1:20 pm77 °FPassing clouds.8 mph51%29.95 "HgN/A
12:50 pm77 °FPassing clouds.10 mph51%29.98 "HgN/A
12:20 pm77 °FPassing clouds.9 mph54%29.98 "HgN/A
11:50 am75 °FPassing clouds.10 mph57%29.98 "HgN/A
11:20 am75 °FPassing clouds.8 mph57%29.98 "HgN/A
10:50 am73 °FPassing clouds.6 mph61%30.01 "HgN/A
10:20 am72 °FPassing clouds.3 mph69%29.98 "HgN/A
9:50 am70 °FSunny.9 mph73%29.98 "Hg10 mi
9:20 am68 °FSunny.9 mph78%29.98 "Hg10 mi
8:50 am59 °FClear.1 mph100%30.01 "Hg5 mi
8:20 am57 °FPassing clouds.3 mph94%30.01 "Hg4 mi
7:50 am55 °FClear.3 mph100%30.01 "Hg4 mi
7:20 am55 °FPassing clouds.2 mph94%29.98 "Hg4 mi
6:50 am57 °FFog.2 mph94%30.01 "Hg3 mi
6:20 am55 °FFog.2 mph100%30.01 "Hg3 mi
5:50 am57 °FPassing clouds.1 mph94%30.01 "Hg4 mi
5:20 am57 °FPassing clouds.2 mph94%30.01 "Hg4 mi
4:50 am57 °FPassing clouds.2 mph94%30.01 "Hg5 mi
4:20 am57 °FPassing clouds.No wind94%30.04 "Hg4 mi
Weather by CustomWeather, © 2019

See weather overview